Zurück zum Katalog

USA 338

AktivMilitärVLEO
NORAD 53883·PAYLOAD·🇺🇸 United States

Gestartet Sep 24, 2022 von Vandenberg Space Force Base

Loading…

Nächste Überflüge (nächste 24 Stunden)

TLE

VeraltetSource: Mike McCants

Epoche: Jul 25, 2026, 21:39 UTC

1 53883U 22117A   26206.90238578 0.00012567  00000-0  19594-3 0    03
2 53883  73.5874 120.9885 0018570  59.2012 300.4582 15.53522323    09

Verfolge USA 338 in Echtzeit mit AllMySat

Download on the App Store